Wind_Speed
45 46 45 43 41 41 43 44 46 48 50 51 50 48 49 49 49 47 46 45 44 44 43 42 39 39 40 39 40 40 39 40 44 41 40 43 45 43 42 37 32 31 35
48 47 43 45 47 47 48 49 50 53 55 56 56 55 52 49 47 46 45 45 45 44 42 43 40 40 40 41 40 41 42 43 42 41 44 45 44 39 34 33 35 36 37
45 44 43 45 50 51 52 53 54 56 58 60 59 57 56 54 50 48 48 47 48 46 43 42 41 40 41 43 44 43 42 45 49 49 47 40 41 34 30 30 33 31 38
38 43 39 42 51 50 53 55 56 56 57 60 61 59 58 53 50 50 45 42 43 43 42 41 41 41 41 42 41 43 46 49 52 47 35 31 34 29 36 36 31 33 32
37 53 47 50 50 47 55 55 55 55 57 62 60 61 55 51 48 45 41 39 38 37 37 37 38 40 37 37 38 42 45 46 42 33 30 27 30 36 27 29 32 32 29
45 54 41 42 53 54 52 55 55 54 56 59 60 64 51 38 39 34 34 35 34 35 33 33 35 36 34 33 37 37 36 32 33 32 30 37 35 30 38 26 25 28 29
68 19 41 50 47 52 54 59 56 55 52 57 58 63 38 25 28 32 33 34 33 31 31 30 32 29 28 30 30 24 21 24 29 25 20 28 29 25 23 22 22 16 17
55 56 60 45 57 58 56 56 55 54 53 55 55 49 37 30 27 27 31 35 33 29 28 28 27 24 25 25 25 24 24 26 24 26 27 16 23 20 17 16 15 13 17
54 53 54 53 52 55 58 57 54 54 55 52 49 46 56 48 26 26 29 34 30 29 28 27 25 22 26 24 23 19 18 20 20 16 13 12 11 10 10 11 14 17 18
56 56 55 55 57 57 55 53 53 53 54 49 45 41 35 29 28 32 31 27 27 28 25 25 25 24 23 23 20 18 17 17 14 13 16 15 13 12 13 11 13 16 17
54 53 54 54 55 53 50 48 51 52 48 44 41 38 24 22 24 21 23 21 22 27 27 24 25 21 21 15 16 17 18 15 16 15 14 16 16 16 13 14 16 15 16
51 51 49 49 49 47 45 46 49 49 45 44 40 32 27 23 17 18 15 18 24 25 23 24 24 21 20 20 19 19 21 19 19 19 17 13 13 16 18 18 17 16 18
49 47 46 47 44 44 47 48 48 48 41 41 34 28 26 22 19 17 16 20 20 20 23 23 19 19 19 23 19 22 22 20 18 16 16 16 16 16 16 15 15 16 18
45 46 46 43 42 45 47 45 44 39 33 29 22 22 21 19 17 17 16 16 16 13 19 21 18 18 20 8 21 19 23 22 19 18 17 18 17 16 16 15 16 17 18
40 44 43 42 43 43 40 39 33 31 28 24 20 20 17 17 17 17 16 16 18 14 15 15 15 18 13 17 19 20 20 20 20 20 19 18 17 16 17 18 20 20 21
42 40 39 39 40 40 36 32 33 26 22 18 19 20 19 21 20 16 16 17 19 14 13 15 16 18 18 18 20 19 20 20 20 20 19 18 18 17 16 16 17 18 20
37 34 37 38 37 35 33 30 20 21 16 12 14 12 11 14 18 16 17 16 15 13 14 17 16 17 19 22 25 23 22 22 21 20 21 20 19 18 15 18 20 21 22
33 34 36 32 31 28 28 22 17 17 12 12 11 11 10 11 13 15 16 17 18 17 15 16 16 17 18 19 22 25 25 23 23 23 24 23 22 20 19 20 21 22 23
29 29 26 27 28 26 23 19 15 14 11 7 8 11 14 16 16 18 18 18 20 20 18 18 17 18 20 19 18 21 25 27 27 27 29 27 25 23 23 22 23 23 24
25 26 23 24 27 26 23 18 14 13 11 8 8 11 16 20 18 18 20 19 20 22 20 19 20 19 20 21 22 23 26 29 29 31 30 28 26 24 23 22 22 21 22
23 23 22 24 26 24 25 17 18 16 11 8 7 10 8 14 25 19 19 21 23 23 23 22 22 23 24 24 25 27 28 29 31 31 30 28 29 26 25 25 24 22 22
22 22 21 20 22 23 24 22 12 13 15 15 13 15 16 12 15 20 28 25 25 23 24 25 26 26 28 29 29 30 30 31 33 34 32 32 31 29 28 27 26 27 26
20 22 20 21 23 21 20 21 19 15 15 15 17 17 13 14 14 17 21 27 20 26 29 27 27 27 25 27 30 31 33 33 35 36 34 34 32 30 31 30 31 30 28
19 20 20 22 22 21 20 20 20 19 17 22 16 15 17 21 18 16 19 24 34 29 37 32 29 26 27 29 31 33 34 36 37 38 37 37 34 33 34 33 33 32 32
21 21 20 20 22 22 21 20 21 21 19 16 17 19 22 21 21 22 21 22 26 42 32 27 31 30 30 33 37 41 40 40 38 39 40 40 38 35 35 35 35 36 37
25 24 24 24 24 24 23 21 21 22 23 22 20 21 20 20 21 18 20 23 28 29 32 31 36 42 34 30 34 36 38 39 44 44 44 41 44 41 42 45 38 45 33
Wind_Direction
301 299 301 299 297 295 297 299 301 302 302 302 301 300 299 298 296 295 292 286 281 279 279 275 272 271 270 272 273 273 272 276 279 277 274 273 276 272 264 254 250 238 254
290 291 296 301 300 300 299 299 300 300 302 302 302 303 300 297 294 292 290 290 286 281 276 274 270 268 267 267 272 273 273 274 272 266 269 275 268 265 257 248 247 245 253
289 291 292 298 300 300 300 298 298 300 301 302 302 300 298 297 293 289 289 287 284 282 279 274 270 267 265 266 270 271 269 269 273 272 274 265 254 253 243 242 247 247 249
272 281 288 297 294 295 299 299 297 298 300 300 298 298 296 295 296 293 293 286 284 284 280 274 268 265 266 269 272 269 271 274 276 273 260 245 240 238 240 241 242 227 233
299 293 277 301 290 293 299 297 298 301 302 301 298 295 292 292 290 288 290 283 281 281 278 274 269 266 266 269 270 272 276 275 269 268 248 239 247 243 240 233 232 242 243
318 309 261 297 296 299 290 302 302 305 303 302 304 288 277 287 285 278 273 274 276 278 275 271 268 267 270 270 274 275 274 269 274 266 255 246 235 244 233 236 235 240 235
321 258 314 304 299 305 304 303 310 306 303 300 298 304 294 281 279 275 273 271 272 278 277 269 265 268 267 266 271 277 275 261 261 258 227 226 215 216 209 216 217 212 221
313 306 307 307 299 303 307 307 304 304 305 303 301 307 295 274 274 274 273 270 270 274 272 266 260 258 256 271 276 271 270 255 252 239 226 211 209 178 181 194 200 207 212
306 303 302 302 302 302 303 303 304 304 301 300 300 296 286 282 272 269 267 268 262 268 266 257 256 252 261 261 268 257 245 241 237 233 218 207 198 201 198 201 198 202 204
301 301 300 299 298 299 301 302 301 301 303 302 302 301 308 280 262 274 264 262 257 262 258 252 252 247 253 259 250 238 239 237 223 213 219 211 211 205 211 220 204 208 211
296 295 296 296 297 298 299 302 301 303 304 301 300 305 300 284 291 265 257 257 260 258 254 248 249 243 248 232 242 249 233 224 226 232 233 222 215 215 208 206 205 210 220
293 294 294 295 297 297 299 302 303 303 302 298 298 293 293 282 266 263 271 256 261 260 244 241 243 241 238 233 255 237 220 221 230 235 237 223 209 206 211 214 213 213 212
298 299 300 300 301 301 303 306 304 300 294 298 303 290 277 278 267 270 273 267 271 238 229 232 239 236 239 238 237 215 221 229 234 228 221 215 213 213 211 215 216 217 214
304 303 302 300 300 303 305 305 305 298 293 289 284 270 271 265 247 256 265 266 261 226 223 229 231 231 232 277 214 227 230 225 218 219 215 212 211 210 219 218 214 221 228
303 301 303 302 303 305 305 306 306 305 303 294 271 261 263 252 246 249 252 247 244 239 230 231 220 221 231 217 205 214 213 210 208 210 215 214 213 210 210 215 222 224 231
301 299 303 305 306 306 306 307 313 305 296 292 282 272 264 245 248 243 240 239 238 233 227 230 228 230 224 215 210 215 216 214 212 208 208 207 209 217 228 238 241 238 240
299 304 309 306 307 307 307 314 309 301 290 280 279 278 249 235 232 229 235 226 222 215 226 235 235 233 231 224 215 215 218 219 219 218 214 216 222 225 233 245 257 264 263
306 310 308 309 310 311 316 317 302 306 282 258 248 242 253 240 227 235 230 227 224 217 225 236 241 238 233 230 226 218 222 222 226 226 227 230 234 240 248 256 258 260 260
312 312 312 312 315 314 314 309 313 305 309 290 268 252 259 239 225 221 230 238 236 231 223 227 237 239 237 237 228 224 219 222 226 229 233 237 242 250 255 254 250 247 248
318 315 317 323 315 316 322 311 306 309 297 307 289 259 263 235 223 223 228 234 239 238 236 226 229 235 234 230 230 230 227 226 231 236 238 243 251 255 253 245 246 247 248
319 312 317 320 336 322 342 329 307 288 288 291 292 292 303 271 241 227 229 232 235 235 234 236 232 233 234 234 230 228 231 233 235 237 241 248 252 247 245 248 248 245 248
328 326 320 323 330 331 332 340 302 296 300 289 294 297 296 279 263 252 239 238 238 237 238 235 237 235 235 237 236 236 237 240 244 248 248 245 243 244 247 251 253 248 245
331 336 331 332 337 338 329 326 326 301 299 297 295 298 292 296 284 259 252 231 239 244 241 240 241 248 256 258 255 251 248 246 247 248 247 247 248 251 254 258 255 252 244
324 326 326 327 327 331 332 325 326 331 331 317 288 305 286 286 283 269 267 243 240 254 259 242 246 244 246 250 252 252 249 247 249 251 250 245 243 250 256 256 250 255 252
330 329 325 323 322 323 321 318 320 321 319 312 305 294 292 298 281 283 272 266 251 248 239 253 261 255 250 255 265 254 248 247 248 247 246 245 242 246 250 257 250 238 254
319 319 318 318 317 317 317 315 312 309 308 308 307 302 291 283 293 294 277 265 250 252 233 255 249 258 254 270 272 263 253 257 243 243 246 254 249 239 252 248 242 247 245
Height
5891 5886 5884 5881 5877 5873 5870 5865 5861 5858 5854 5850 5847 5844 5840 5836 5831 5827 5825 5824 5822 5820 5819 5818 5819 5817 5816 5816 5815 5815 5815 5814 5810 5811 5811 5809 5810 5809 5809 5816 5819 5821 5824
5886 5881 5878 5872 5867 5863 5859 5855 5850 5845 5840 5836 5831 5827 5824 5820 5817 5813 5811 5809 5808 5806 5805 5804 5806 5805 5805 5804 5803 5803 5802 5802 5799 5799 5797 5797 5796 5799 5802 5805 5808 5811 5813
5875 5871 5867 5864 5858 5852 5848 5843 5838 5832 5827 5822 5817 5812 5808 5805 5802 5799 5796 5794 5793 5792 5791 5791 5791 5791 5792 5791 5791 5791 5790 5788 5786 5786 5787 5786 5785 5790 5794 5796 5800 5802 5805
5857 5857 5855 5851 5846 5841 5836 5830 5824 5819 5814 5808 5800 5796 5790 5787 5786 5784 5782 5778 5778 5778 5778 5778 5778 5778 5778 5778 5778 5778 5777 5774 5771 5771 5774 5774 5777 5781 5784 5787 5791 5795 5797
5854 5849 5842 5835 5833 5829 5823 5818 5811 5804 5798 5788 5781 5775 5770 5770 5768 5767 5767 5765 5764 5764 5765 5765 5765 5765 5766 5766 5766 5766 5763 5759 5758 5759 5762 5765 5769 5773 5773 5777 5782 5786 5790
5833 5820 5820 5819 5820 5815 5805 5800 5793 5788 5783 5776 5767 5750 5750 5752 5753 5752 5751 5753 5752 5751 5752 5753 5753 5754 5755 5755 5755 5753 5752 5748 5747 5750 5753 5755 5759 5760 5766 5770 5774 5778 5783
5815 5796 5810 5807 5799 5795 5786 5783 5775 5773 5769 5764 5754 5743 5739 5737 5739 5739 5740 5741 5741 5740 5740 5741 5743 5744 5745 5746 5745 5744 5743 5741 5742 5744 5746 5748 5750 5755 5758 5762 5768 5772 5776
5805 5785 5788 5792 5785 5779 5769 5766 5765 5761 5757 5751 5741 5735 5727 5726 5727 5726 5728 5730 5729 5730 5730 5732 5734 5735 5736 5737 5737 5738 5739 5739 5739 5740 5742 5745 5748 5750 5752 5758 5763 5769 5773
5794 5789 5784 5778 5771 5764 5760 5756 5753 5750 5744 5737 5731 5729 5721 5716 5715 5717 5716 5718 5719 5720 5721 5722 5726 5727 5728 5730 5731 5733 5733 5734 5735 5736 5739 5741 5744 5747 5751 5755 5760 5765 5769
5786 5779 5774 5768 5762 5757 5752 5747 5741 5736 5729 5725 5721 5713 5706 5707 5705 5706 5707 5707 5709 5711 5713 5715 5718 5720 5722 5724 5725 5727 5729 5730 5731 5733 5736 5738 5743 5746 5750 5754 5758 5762 5766
5777 5770 5763 5757 5751 5746 5741 5736 5727 5720 5715 5711 5709 5707 5700 5697 5696 5695 5699 5699 5700 5703 5706 5709 5711 5714 5716 5717 5721 5722 5724 5726 5728 5730 5732 5736 5738 5742 5745 5750 5754 5759 5761
5762 5756 5750 5745 5738 5733 5727 5722 5714 5707 5702 5697 5693 5694 5693 5689 5689 5691 5690 5692 5692 5693 5697 5701 5705 5707 5709 5712 5714 5717 5720 5722 5724 5726 5728 5732 5735 5738 5742 5746 5750 5754 5757
5746 5741 5736 5730 5724 5718 5713 5708 5701 5693 5689 5685 5682 5682 5682 5680 5681 5682 5684 5685 5685 5685 5691 5695 5699 5701 5703 5706 5708 5711 5714 5717 5719 5723 5725 5728 5732 5735 5738 5742 5747 5750 5753
5731 5726 5721 5717 5712 5706 5699 5693 5687 5680 5676 5674 5673 5672 5672 5673 5675 5675 5677 5679 5680 5682 5686 5690 5693 5696 5699 5701 5704 5707 5711 5712 5715 5719 5721 5725 5728 5732 5734 5738 5742 5746 5748
5715 5713 5709 5703 5698 5693 5688 5682 5678 5673 5668 5666 5665 5665 5666 5667 5667 5669 5671 5674 5675 5678 5681 5686 5688 5691 5694 5697 5700 5703 5707 5710 5713 5716 5720 5723 5725 5728 5731 5733 5737 5741 5743
5707 5701 5697 5693 5687 5682 5678 5676 5669 5664 5661 5659 5658 5659 5660 5661 5662 5663 5666 5669 5671 5674 5676 5680 5683 5686 5689 5692 5695 5699 5703 5707 5709 5713 5717 5720 5722 5724 5726 5729 5732 5736 5738
5695 5690 5687 5682 5677 5673 5669 5667 5662 5656 5653 5652 5653 5654 5654 5655 5656 5658 5660 5663 5667 5669 5672 5675 5678 5681 5684 5687 5691 5695 5699 5702 5706 5709 5712 5715 5718 5722 5723 5725 5725 5727 5730
5686 5681 5677 5673 5670 5665 5661 5657 5654 5652 5650 5650 5649 5650 5651 5652 5653 5656 5658 5660 5662 5663 5667 5671 5674 5677 5680 5682 5685 5689 5693 5697 5700 5703 5706 5709 5712 5714 5716 5719 5721 5721 5722
5678 5674 5672 5668 5664 5660 5657 5652 5650 5648 5647 5645 5646 5646 5648 5649 5650 5651 5654 5657 5660 5662 5662 5665 5669 5671 5674 5678 5681 5683 5687 5691 5693 5696 5699 5701 5704 5707 5709 5711 5712 5714 5715
5673 5670 5667 5664 5660 5655 5651 5648 5646 5645 5643 5641 5642 5643 5644 5645 5645 5647 5649 5652 5655 5657 5658 5659 5662 5665 5668 5671 5674 5677 5680 5683 5686 5689 5692 5695 5697 5699 5701 5703 5705 5706 5708
5670 5666 5663 5660 5656 5651 5647 5644 5642 5641 5640 5639 5639 5638 5637 5636 5633 5638 5642 5646 5648 5650 5652 5654 5656 5658 5661 5663 5666 5669 5672 5676 5680 5682 5685 5688 5689 5691 5693 5694 5695 5697 5700
5665 5661 5658 5657 5653 5650 5645 5641 5639 5636 5635 5636 5636 5636 5635 5634 5634 5636 5636 5639 5642 5644 5644 5645 5648 5650 5652 5656 5659 5663 5666 5669 5669 5672 5676 5679 5680 5682 5683 5684 5686 5687 5688
5661 5657 5654 5652 5650 5646 5642 5639 5637 5635 5633 5632 5631 5631 5631 5630 5630 5630 5631 5631 5633 5637 5638 5639 5640 5641 5646 5648 5651 5655 5657 5659 5661 5662 5665 5668 5670 5671 5671 5674 5676 5678 5679
5658 5655 5651 5648 5646 5644 5640 5637 5634 5632 5630 5629 5627 5626 5627 5626 5625 5624 5624 5624 5621 5623 5625 5630 5634 5634 5635 5638 5640 5642 5645 5646 5649 5651 5654 5655 5657 5659 5660 5663 5666 5667 5668
5654 5651 5648 5645 5642 5639 5636 5634 5631 5629 5627 5626 5623 5622 5621 5619 5619 5619 5619 5618 5619 5619 5617 5616 5620 5623 5624 5627 5629 5628 5631 5632 5635 5637 5640 5643 5645 5647 5648 5651 5652 5656 5658
5649 5646 5643 5641 5638 5635 5632 5629 5626 5624 5621 5619 5618 5616 5615 5614 5613 5611 5611 5611 5612 5608 5607 5608 5607 5611 5612 5613 5614 5616 5617 5618 5619 5622 5624 5627 5630 5634 5636 5639 5641 5642 5645